Time,TemperatureF,DewpointF,PressureIn,WindDirection,WindDirectionDegrees,WindSpeedMPH,WindSpeedGustMPH,Humidity,HourlyPrecipIn,Conditions,Clouds,dailyrainin,SoftwareType,DateUTC
2013-04-23 00:02:00,23.0,17.0,30.38,NW,307,1.0,-999.0,79,-99.99,,,-99.99,,2013-04-23 06:02:00,
2013-04-23 00:12:00,23.0,17.0,30.38,NW,307,1.0,-999.0,79,-99.99,,,-99.99,,2013-04-23 06:12:00,
2013-04-23 00:21:00,22.0,17.0,30.37,NW,307,3.0,-999.0,81,-99.99,,,-99.99,,2013-04-23 06:21:00,
2013-04-23 00:30:00,21.0,17.0,30.36,NW,307,3.0,-999.0,84,-99.99,,,-99.99,,2013-04-23 06:30:00,
2013-04-23 00:33:00,22.0,17.0,30.37,NW,307,3.0,-999.0,81,-99.99,,,-99.99,,2013-04-23 06:33:00,
2013-04-23 00:42:00,22.0,17.0,30.37,NW,307,3.0,-999.0,81,-99.99,,,-99.99,,2013-04-23 06:42:00,
2013-04-23 00:52:00,21.0,17.0,30.36,NW,307,3.0,-999.0,84,-99.99,,,-99.99,,2013-04-23 06:52:00,
2013-04-23 01:02:00,21.0,17.0,30.36,NW,307,3.0,-999.0,84,-99.99,,,-99.99,,2013-04-23 07:02:00,
2013-04-23 01:11:00,21.0,17.0,30.36,NW,307,3.0,-999.0,84,-99.99,,,-99.99,,2013-04-23 07:11:00,
2013-04-23 01:21:00,21.0,17.0,30.36,NW,307,3.0,-999.0,84,-99.99,,,-99.99,,2013-04-23 07:21:00,
2013-04-23 01:52:00,23.0,18.0,30.34,WNW,287,5.0,-999.0,80,-99.99,,,-99.99,,2013-04-23 07:52:00,
2013-04-23 02:02:00,23.0,18.0,30.34,WNW,287,5.0,-999.0,80,-99.99,,,-99.99,,2013-04-23 08:02:00,
2013-04-23 02:11:00,23.0,18.0,30.34,WNW,287,5.0,-999.0,80,-99.99,,,-99.99,,2013-04-23 08:11:00,
2013-04-23 02:21:00,24.0,19.0,30.33,WSW,248,7.0,-999.0,81,-99.99,,,-99.99,,2013-04-23 08:21:00,
2013-04-23 02:31:00,24.0,19.0,30.33,WSW,248,7.0,-999.0,81,-99.99,,,-99.99,,2013-04-23 08:31:00,
2013-04-23 02:42:00,24.0,19.0,30.33,WSW,248,7.0,-999.0,81,-99.99,,,-99.99,,2013-04-23 08:42:00,
2013-04-23 02:52:00,25.0,20.0,30.32,WSW,237,8.0,-999.0,80,-99.99,,,-99.99,,2013-04-23 08:52:00,
2013-04-23 03:00:00,25.0,20.0,30.31,SW,236,8.0,-999.0,80,-99.99,,,-99.99,,2013-04-23 09:00:00,
2013-04-23 03:01:00,25.0,20.0,30.32,WSW,237,8.0,-999.0,80,-99.99,,,-99.99,,2013-04-23 09:01:00,
2013-04-23 03:11:00,25.0,20.0,30.32,WSW,237,8.0,-999.0,80,-99.99,,,-99.99,,2013-04-23 09:11:00,
2013-04-23 03:21:00,25.0,20.0,30.31,SW,236,8.0,-999.0,80,-99.99,,,-99.99,,2013-04-23 09:21:00,
2013-04-23 03:33:00,25.0,20.0,30.31,SW,236,8.0,-999.0,80,-99.99,,,-99.99,,2013-04-23 09:33:00,
2013-04-23 03:43:00,25.0,20.0,30.31,SW,236,8.0,-999.0,80,-99.99,,,-99.99,,2013-04-23 09:43:00,
2013-04-23 03:53:00,25.0,20.0,30.31,SW,236,8.0,-999.0,80,-99.99,,,-99.99,,2013-04-23 09:53:00,
2013-04-23 04:00:00,25.0,20.0,30.29,WSW,243,8.0,-999.0,80,-99.99,,,-99.99,,2013-04-23 10:00:00,
2013-04-23 04:23:00,25.0,20.0,30.29,WSW,243,8.0,-999.0,80,-99.99,,,-99.99,,2013-04-23 10:23:00,
2013-04-23 04:33:00,25.0,20.0,30.29,WSW,243,8.0,-999.0,80,-99.99,,,-99.99,,2013-04-23 10:33:00,
2013-04-23 04:43:00,25.0,20.0,30.29,WSW,243,8.0,-999.0,80,-99.99,,,-99.99,,2013-04-23 10:43:00,
2013-04-23 04:52:00,25.0,20.0,30.29,WSW,243,8.0,-999.0,80,-99.99,,,-99.99,,2013-04-23 10:52:00,
2013-04-23 05:22:00,26.0,21.0,30.27,WSW,240,9.0,-999.0,80,-99.99,,,-99.99,,2013-04-23 11:22:00,
2013-04-23 05:32:00,26.0,21.0,30.27,WSW,240,9.0,-999.0,80,-99.99,,,-99.99,,2013-04-23 11:32:00,
2013-04-23 05:43:00,26.0,21.0,30.27,WSW,240,9.0,-999.0,80,-99.99,,,-99.99,,2013-04-23 11:43:00,
2013-04-23 05:53:00,25.0,19.0,30.26,WSW,238,9.0,-999.0,79,-99.99,,,-99.99,,2013-04-23 11:53:00,
2013-04-23 06:00:00,25.0,20.0,30.25,WSW,240,7.0,-999.0,81,-99.99,,,-99.99,,2013-04-23 12:00:00,
2013-04-23 06:02:00,25.0,19.0,30.26,WSW,238,9.0,-999.0,79,-99.99,,,-99.99,,2013-04-23 12:02:00,
2013-04-23 06:12:00,25.0,19.0,30.26,WSW,238,9.0,-999.0,79,-99.99,,,-99.99,,2013-04-23 12:12:00,
2013-04-23 06:22:00,25.0,20.0,30.25,WSW,240,7.0,-999.0,81,-99.99,,,-99.99,,2013-04-23 12:22:00,
2013-04-23 06:32:00,25.0,20.0,30.25,WSW,240,7.0,-999.0,81,-99.99,,,-99.99,,2013-04-23 12:32:00,
2013-04-23 06:42:00,25.0,20.0,30.25,WSW,240,7.0,-999.0,81,-99.99,,,-99.99,,2013-04-23 12:42:00,
2013-04-23 06:52:00,25.0,20.0,30.25,WSW,240,7.0,-999.0,81,-99.99,,,-99.99,,2013-04-23 12:52:00,
2013-04-23 07:22:00,28.0,22.0,30.24,WSW,238,8.0,-999.0,79,-99.99,,,-99.99,,2013-04-23 13:22:00,
2013-04-23 07:32:00,28.0,22.0,30.24,WSW,238,8.0,-999.0,79,-99.99,,,-99.99,,2013-04-23 13:32:00,
2013-04-23 07:42:00,28.0,22.0,30.24,WSW,238,8.0,-999.0,79,-99.99,,,-99.99,,2013-04-23 13:42:00,
2013-04-23 07:52:00,32.0,24.0,30.23,WSW,250,9.0,-999.0,71,-99.99,,,-99.99,,2013-04-23 13:52:00,
2013-04-23 08:01:00,32.0,24.0,30.23,WSW,250,9.0,-999.0,71,-99.99,,,-99.99,,2013-04-23 14:01:00,
2013-04-23 08:11:00,32.0,24.0,30.23,WSW,250,9.0,-999.0,71,-99.99,,,-99.99,,2013-04-23 14:11:00,
2013-04-23 08:22:00,34.0,24.0,30.24,West,267,11.0,-999.0,66,-99.99,,,-99.99,,2013-04-23 14:22:00,
2013-04-23 08:32:00,34.0,24.0,30.24,West,267,11.0,-999.0,66,-99.99,,,-99.99,,2013-04-23 14:32:00,
2013-04-23 08:42:00,34.0,24.0,30.24,West,267,11.0,-999.0,66,-99.99,,,-99.99,,2013-04-23 14:42:00,
2013-04-23 08:52:00,34.0,23.0,30.24,West,277,14.0,-999.0,65,-99.99,,,-99.99,,2013-04-23 14:52:00,
2013-04-23 09:01:00,34.0,23.0,30.24,West,277,14.0,-999.0,65,-99.99,,,-99.99,,2013-04-23 15:01:00,
2013-04-23 09:12:00,34.0,23.0,30.24,West,277,14.0,-999.0,65,-99.99,,,-99.99,,2013-04-23 15:12:00,
2013-04-23 09:21:00,36.0,25.0,30.22,West,277,15.0,-999.0,63,-99.99,,,-99.99,,2013-04-23 15:21:00,
2013-04-23 09:32:00,36.0,25.0,30.22,West,277,15.0,-999.0,63,-99.99,,,-99.99,,2013-04-23 15:32:00,
2013-04-23 09:43:00,36.0,25.0,30.22,West,277,15.0,-999.0,63,-99.99,,,-99.99,,2013-04-23 15:43:00,
2013-04-23 09:53:00,37.0,25.0,30.21,West,278,14.0,-999.0,61,-99.99,,,-99.99,,2013-04-23 15:53:00,
2013-04-23 10:03:00,37.0,25.0,30.21,West,278,14.0,-999.0,61,-99.99,,,-99.99,,2013-04-23 16:03:00,
2013-04-23 10:12:00,37.0,25.0,30.21,West,278,14.0,-999.0,61,-99.99,,,-99.99,,2013-04-23 16:12:00,
2013-04-23 10:23:00,38.0,24.0,30.22,West,271,15.0,-999.0,56,-99.99,,,-99.99,,2013-04-23 16:23:00,
2013-04-23 10:34:00,38.0,24.0,30.22,West,271,15.0,-999.0,56,-99.99,,,-99.99,,2013-04-23 16:34:00,
2013-04-23 10:43:00,38.0,24.0,30.22,West,271,15.0,-999.0,56,-99.99,,,-99.99,,2013-04-23 16:43:00,
2013-04-23 10:53:00,40.0,23.0,30.21,WSW,244,14.0,-999.0,50,-99.99,,,-99.99,,2013-04-23 16:53:00,
2013-04-23 11:02:00,40.0,23.0,30.21,WSW,244,14.0,-999.0,50,-99.99,,,-99.99,,2013-04-23 17:02:00,
2013-04-23 11:11:00,40.0,23.0,30.21,WSW,244,14.0,-999.0,50,-99.99,,,-99.99,,2013-04-23 17:11:00,
2013-04-23 11:22:00,41.0,24.0,30.21,West,259,14.0,-999.0,50,-99.99,,,-99.99,,2013-04-23 17:22:00,
2013-04-23 11:32:00,41.0,24.0,30.21,West,259,14.0,-999.0,50,-99.99,,,-99.99,,2013-04-23 17:32:00,
2013-04-23 11:43:00,41.0,24.0,30.21,West,259,14.0,-999.0,50,-99.99,,,-99.99,,2013-04-23 17:43:00,
2013-04-23 11:53:00,42.0,23.0,30.19,West,261,13.0,-999.0,47,-99.99,,,-99.99,,2013-04-23 17:53:00,
2013-04-23 12:02:00,42.0,23.0,30.19,West,261,13.0,-999.0,47,-99.99,,,-99.99,,2013-04-23 18:02:00,
2013-04-23 12:12:00,42.0,23.0,30.19,West,261,13.0,-999.0,47,-99.99,,,-99.99,,2013-04-23 18:12:00,
2013-04-23 12:22:00,43.0,22.0,30.19,West,271,12.0,-999.0,43,-99.99,,,-99.99,,2013-04-23 18:22:00,
2013-04-23 12:32:00,43.0,22.0,30.19,West,271,12.0,-999.0,43,-99.99,,,-99.99,,2013-04-23 18:32:00,
2013-04-23 12:42:00,43.0,22.0,30.19,West,271,12.0,-999.0,43,-99.99,,,-99.99,,2013-04-23 18:42:00,
2013-04-23 12:52:00,43.0,21.0,30.17,West,259,12.0,-999.0,41,-99.99,,,-99.99,,2013-04-23 18:52:00,
2013-04-23 13:02:00,43.0,21.0,30.17,West,259,12.0,-999.0,41,-99.99,,,-99.99,,2013-04-23 19:02:00,
2013-04-23 13:11:00,43.0,21.0,30.17,West,259,12.0,-999.0,41,-99.99,,,-99.99,,2013-04-23 19:11:00,
2013-04-23 13:22:00,44.0,21.0,30.15,WSW,256,13.0,-999.0,40,-99.99,,,-99.99,,2013-04-23 19:22:00,
2013-04-23 13:32:00,44.0,21.0,30.15,WSW,256,13.0,-999.0,40,-99.99,,,-99.99,,2013-04-23 19:32:00,
2013-04-23 13:42:00,44.0,21.0,30.15,WSW,256,13.0,-999.0,40,-99.99,,,-99.99,,2013-04-23 19:42:00,
2013-04-23 13:52:00,45.0,22.0,30.14,SW,236,11.0,-999.0,39,-99.99,,,-99.99,,2013-04-23 19:52:00,
2013-04-23 14:01:00,45.0,22.0,30.14,SW,236,11.0,-999.0,39,-99.99,,,-99.99,,2013-04-23 20:01:00,
2013-04-23 14:11:00,45.0,22.0,30.14,SW,236,11.0,-999.0,39,-99.99,,,-99.99,,2013-04-23 20:11:00,
2013-04-23 14:22:00,45.0,22.0,30.12,SW,228,11.0,-999.0,40,-99.99,,,-99.99,,2013-04-23 20:22:00,
2013-04-23 14:32:00,45.0,22.0,30.12,SW,228,11.0,-999.0,40,-99.99,,,-99.99,,2013-04-23 20:32:00,
2013-04-23 14:42:00,45.0,22.0,30.12,SW,228,11.0,-999.0,40,-99.99,,,-99.99,,2013-04-23 20:42:00,
2013-04-23 14:52:00,46.0,22.0,30.11,WSW,246,12.0,-999.0,38,-99.99,,,-99.99,,2013-04-23 20:52:00,
2013-04-23 15:01:00,46.0,22.0,30.11,WSW,246,12.0,-999.0,38,-99.99,,,-99.99,,2013-04-23 21:01:00,
2013-04-23 15:12:00,46.0,22.0,30.11,WSW,246,12.0,-999.0,38,-99.99,,,-99.99,,2013-04-23 21:12:00,
2013-04-23 15:21:00,47.0,21.0,30.10,West,267,12.0,-999.0,36,-99.99,,,-99.99,,2013-04-23 21:21:00,
2013-04-23 15:33:00,47.0,21.0,30.10,West,267,12.0,-999.0,36,-99.99,,,-99.99,,2013-04-23 21:33:00,
2013-04-23 15:43:00,47.0,21.0,30.10,West,267,12.0,-999.0,36,-99.99,,,-99.99,,2013-04-23 21:43:00,
2013-04-23 15:52:00,47.0,23.0,30.08,SW,227,11.0,-999.0,38,-99.99,,,-99.99,,2013-04-23 21:52:00,
2013-04-23 16:03:00,47.0,23.0,30.08,SW,227,11.0,-999.0,38,-99.99,,,-99.99,,2013-04-23 22:03:00,
2013-04-23 16:12:00,47.0,23.0,30.08,SW,227,11.0,-999.0,38,-99.99,,,-99.99,,2013-04-23 22:12:00,
2013-04-23 16:22:00,47.0,21.0,30.07,West,268,8.0,-999.0,35,-99.99,,,-99.99,,2013-04-23 22:22:00,
2013-04-23 16:30:00,46.0,22.0,30.06,WNW,290,10.0,-999.0,38,-99.99,,,-99.99,,2013-04-23 22:30:00,
2013-04-23 16:33:00,47.0,21.0,30.07,West,268,8.0,-999.0,35,-99.99,,,-99.99,,2013-04-23 22:33:00,
2013-04-23 16:42:00,47.0,21.0,30.07,West,268,8.0,-999.0,35,-99.99,,,-99.99,,2013-04-23 22:42:00,
2013-04-23 16:52:00,46.0,22.0,30.06,WNW,290,10.0,-999.0,38,-99.99,,,-99.99,,2013-04-23 22:52:00,
2013-04-23 17:03:00,46.0,22.0,30.06,WNW,290,10.0,-999.0,38,-99.99,,,-99.99,,2013-04-23 23:03:00,
2013-04-23 17:12:00,46.0,22.0,30.06,WNW,290,10.0,-999.0,38,-99.99,,,-99.99,,2013-04-23 23:12:00,
2013-04-23 17:22:00,46.0,22.0,30.06,WNW,290,10.0,-999.0,38,-99.99,,,-99.99,,2013-04-23 23:22:00,
2013-04-23 17:52:00,45.0,20.0,30.04,North,355,2.0,-999.0,37,-99.99,,,-99.99,,2013-04-23 23:52:00,
2013-04-23 18:01:00,45.0,20.0,30.04,North,355,2.0,-999.0,37,-99.99,,,-99.99,,2013-04-24 00:01:00,
2013-04-23 18:11:00,45.0,20.0,30.04,North,355,2.0,-999.0,37,-99.99,,,-99.99,,2013-04-24 00:11:00,
2013-04-23 18:22:00,45.0,24.0,30.06,NNW,335,5.0,-999.0,44,-99.99,,,-99.99,,2013-04-24 00:22:00,
2013-04-23 18:32:00,45.0,24.0,30.06,NNW,335,5.0,-999.0,44,-99.99,,,-99.99,,2013-04-24 00:32:00,
2013-04-23 18:42:00,45.0,24.0,30.06,NNW,335,5.0,-999.0,44,-99.99,,,-99.99,,2013-04-24 00:42:00,
2013-04-23 18:52:00,39.0,30.0,30.07,NW,317,14.0,-999.0,70,-99.99,,,-99.99,,2013-04-24 00:52:00,
2013-04-23 19:01:00,39.0,30.0,30.07,NW,317,14.0,-999.0,70,-99.99,,,-99.99,,2013-04-24 01:01:00,
2013-04-23 19:11:00,39.0,30.0,30.07,NW,317,14.0,-999.0,70,-99.99,,,-99.99,,2013-04-24 01:11:00,
2013-04-23 19:21:00,39.0,31.0,30.07,NNW,338,4.0,-999.0,72,-99.99,,,-99.99,,2013-04-24 01:21:00,
2013-04-23 19:32:00,39.0,31.0,30.07,NNW,338,4.0,-999.0,72,-99.99,,,-99.99,,2013-04-24 01:32:00,
2013-04-23 19:43:00,39.0,31.0,30.07,NNW,338,4.0,-999.0,72,-99.99,,,-99.99,,2013-04-24 01:43:00,
2013-04-23 19:52:00,38.0,31.0,30.07,NNW,344,3.0,-999.0,76,-99.99,,,-99.99,,2013-04-24 01:52:00,
2013-04-23 20:02:00,38.0,31.0,30.07,NNW,344,3.0,-999.0,76,-99.99,,,-99.99,,2013-04-24 02:02:00,
2013-04-23 20:17:00,38.0,31.0,30.07,NNW,344,3.0,-999.0,76,-99.99,,,-99.99,,2013-04-24 02:17:00,
2013-04-23 20:28:00,37.0,32.0,30.09,NNW,341,8.0,-999.0,83,-99.99,,,-99.99,,2013-04-24 02:28:00,
2013-04-23 20:37:00,37.0,32.0,30.09,NNW,341,8.0,-999.0,83,-99.99,,,-99.99,,2013-04-24 02:37:00,
2013-04-23 20:50:00,37.0,32.0,30.09,NNW,341,8.0,-999.0,83,-99.99,,,-99.99,,2013-04-24 02:50:00,
2013-04-23 21:17:00,35.0,32.0,30.09,NNE,13,5.0,-999.0,89,-99.99,,,-99.99,,2013-04-24 03:17:00,
2013-04-23 21:28:00,32.0,30.0,30.09,NNE,13,3.0,-999.0,91,-99.99,,,-99.99,,2013-04-24 03:28:00,
2013-04-23 21:30:00,31.0,29.0,30.09,NNE,13,3.0,-999.0,92,-99.99,,,-99.99,,2013-04-24 03:30:00,
2013-04-23 21:39:00,32.0,30.0,30.09,NNE,13,3.0,-999.0,91,-99.99,,,-99.99,,2013-04-24 03:39:00,
2013-04-23 21:53:00,32.0,30.0,30.09,NNE,13,3.0,-999.0,91,-99.99,,,-99.99,,2013-04-24 03:53:00,
2013-04-23 22:01:00,31.0,29.0,30.09,NNE,13,3.0,-999.0,92,-99.99,,,-99.99,,2013-04-24 04:01:00,
2013-04-23 22:03:00,31.0,29.0,30.09,NNE,13,3.0,-999.0,92,-99.99,,,-99.99,,2013-04-24 04:03:00,
2013-04-23 22:12:00,31.0,29.0,30.09,NNE,13,3.0,-999.0,92,-99.99,,,-99.99,,2013-04-24 04:12:00,
2013-04-23 22:23:00,31.0,29.0,30.09,NNE,13,3.0,-999.0,92,-99.99,,,-99.99,,2013-04-24 04:23:00,
2013-04-23 23:22:00,30.0,28.0,30.07,NNE,13,0.0,-999.0,94,-99.99,,,-99.99,,2013-04-24 05:22:00,
2013-04-23 23:30:00,30.0,28.0,30.06,NNE,13,0.0,-999.0,94,-99.99,,,-99.99,,2013-04-24 05:30:00,
2013-04-23 23:32:00,30.0,28.0,30.07,NNE,13,0.0,-999.0,94,-99.99,,,-99.99,,2013-04-24 05:32:00,
2013-04-23 23:42:00,30.0,28.0,30.07,NNE,13,0.0,-999.0,94,-99.99,,,-99.99,,2013-04-24 05:42:00,
2013-04-23 23:52:00,30.0,28.0,30.06,NNE,13,0.0,-999.0,94,-99.99,,,-99.99,,2013-04-24 05:52:00,